DLH08CT EDDB-ELLX

Flight info

Callsign DLH08CT
Flight time 1h 10m
Altitude 36000
Route KISUC1Z KISUC Z20 MAG Z92 ABGUS DCT TOLTA DCT ABAMI Z717 NEREL T855 LNO
Aircraft B738/M-SDE2E3FGHIRWXY/LB1

Departure

Time 2026-05-07 15:37
Airport Berlin Brandenburg Airport (EDDB)

Arrival

Time 2026-05-07 16:48
Airport Luxembourg-Findel International Airport (ELLX)
Time Latitude Longitude Altitude Speed Heading
2026-05-07 15:05 52.36092 13.50803 126 ft 0 kts 69°
2026-05-07 15:25 52.36085 13.50774 153 ft 4 kts 69°
2026-05-07 15:25 52.36075 13.50733 152 ft 4 kts 69°
2026-05-07 15:25 52.36068 13.50699 153 ft 4 kts 78°
2026-05-07 15:25 52.36069 13.50658 152 ft 4 kts 117°
2026-05-07 15:26 52.36085 13.50628 152 ft 4 kts 155°
2026-05-07 15:26 52.36104 13.50616 152 ft 0 kts 159°
2026-05-07 15:29 52.36110 13.50612 152 ft 6 kts 159°
2026-05-07 15:29 52.36204 13.50551 152 ft 22 kts 158°
2026-05-07 15:30 52.36243 13.50525 152 ft 0 kts 158°
2026-05-07 15:30 52.36209 13.50548 152 ft 10 kts 157°
2026-05-07 15:30 52.36142 13.50593 152 ft 11 kts 159°
2026-05-07 15:31 52.36073 13.50637 152 ft 11 kts 159°
2026-05-07 15:31 52.36005 13.50680 152 ft 11 kts 160°
2026-05-07 15:31 52.35935 13.50721 152 ft 11 kts 161°
2026-05-07 15:31 52.35862 13.50763 151 ft 11 kts 163°
2026-05-07 15:32 52.35793 13.50696 147 ft 15 kts 241°
2026-05-07 15:32 52.35751 13.50532 147 ft 16 kts 248°
2026-05-07 15:32 52.35711 13.50361 147 ft 16 kts 250°
2026-05-07 15:32 52.35672 13.50193 147 ft 16 kts 246°
2026-05-07 15:33 52.35631 13.50026 147 ft 16 kts 249°
2026-05-07 15:33 52.35592 13.49855 147 ft 16 kts 249°
2026-05-07 15:33 52.35550 13.49689 147 ft 16 kts 251°
2026-05-07 15:33 52.35511 13.49519 147 ft 16 kts 246°
2026-05-07 15:34 52.35472 13.49356 147 ft 15 kts 250°
2026-05-07 15:34 52.35436 13.49193 147 ft 15 kts 249°
2026-05-07 15:34 52.35396 13.49028 147 ft 16 kts 248°
2026-05-07 15:34 52.35355 13.48859 147 ft 16 kts 249°
2026-05-07 15:35 52.35317 13.48693 148 ft 15 kts 248°
2026-05-07 15:35 52.35279 13.48548 148 ft 15 kts 245°
2026-05-07 15:35 52.35227 13.48482 147 ft 9 kts 173°
2026-05-07 15:35 52.35166 13.48513 149 ft 9 kts 161°
2026-05-07 15:36 52.35116 13.48571 151 ft 9 kts 127°
2026-05-07 15:36 52.35096 13.48668 153 ft 12 kts 101°
2026-05-07 15:36 52.35079 13.48839 155 ft 18 kts 96°
2026-05-07 15:36 52.35082 13.49075 157 ft 23 kts 78°
2026-05-07 15:37 52.35154 13.49425 158 ft 62 kts 69°
2026-05-07 15:37 52.35393 13.50422 156 ft 139 kts 68°
2026-05-07 15:37 52.35794 13.52235 435 ft 188 kts 70°
2026-05-07 15:37 52.36190 13.54410 1109 ft 218 kts 85°
2026-05-07 15:38 52.35707 13.56878 1618 ft 241 kts 126°
2026-05-07 15:38 52.34353 13.58333 2045 ft 228 kts 166°
2026-05-07 15:38 52.32887 13.57971 2462 ft 216 kts 212°
2026-05-07 15:38 52.31944 13.56058 2968 ft 222 kts 246°
2026-05-07 15:39 52.31013 13.54031 3426 ft 234 kts 219°
2026-05-07 15:39 52.29711 13.52336 3938 ft 244 kts 219°
2026-05-07 15:39 52.28369 13.50549 4433 ft 253 kts 219°
2026-05-07 15:39 52.27060 13.48613 4881 ft 253 kts 233°
2026-05-07 15:40 52.26351 13.46028 5344 ft 251 kts 260°
2026-05-07 15:40 52.26214 13.43178 5826 ft 252 kts 271°
2026-05-07 15:40 52.26230 13.40302 6298 ft 255 kts 272°
2026-05-07 15:40 52.26264 13.37392 6751 ft 257 kts 272°
2026-05-07 15:41 52.26286 13.34464 7194 ft 259 kts 271°
2026-05-07 15:41 52.26295 13.31509 7642 ft 261 kts 271°
2026-05-07 15:41 52.26296 13.28547 8099 ft 262 kts 271°
2026-05-07 15:41 52.26293 13.25555 8561 ft 263 kts 271°
2026-05-07 15:42 52.26214 13.22537 8981 ft 274 kts 257°
2026-05-07 15:42 52.25438 13.19663 9501 ft 286 kts 239°
2026-05-07 15:42 52.24391 13.16867 9987 ft 291 kts 238°
2026-05-07 15:42 52.23321 13.14054 10429 ft 292 kts 238°
2026-05-07 15:43 52.22250 13.11229 10890 ft 295 kts 238°
2026-05-07 15:43 52.21148 13.08304 11385 ft 310 kts 238°
2026-05-07 15:43 52.19996 13.05228 11860 ft 326 kts 238°
2026-05-07 15:43 52.18786 13.01988 12319 ft 341 kts 238°
2026-05-07 15:44 52.17527 12.98623 12792 ft 353 kts 238°
2026-05-07 15:44 52.16314 12.95097 13261 ft 361 kts 248°
2026-05-07 15:44 52.15667 12.91142 13749 ft 362 kts 258°
2026-05-07 15:44 52.15148 12.87144 14184 ft 367 kts 258°
2026-05-07 15:45 52.14605 12.83036 14643 ft 374 kts 258°
2026-05-07 15:45 52.14040 12.78886 15085 ft 376 kts 258°
2026-05-07 15:45 52.13458 12.74726 15533 ft 377 kts 258°
2026-05-07 15:45 52.12867 12.70560 15995 ft 379 kts 258°
2026-05-07 15:46 52.11665 12.62179 16912 ft 381 kts 257°
2026-05-07 15:46 52.11056 12.57971 17375 ft 382 kts 257°
2026-05-07 15:46 52.10446 12.53765 17856 ft 382 kts 257°
2026-05-07 15:47 52.09830 12.49529 18355 ft 388 kts 257°
2026-05-07 15:47 52.09205 12.45228 18799 ft 393 kts 257°
2026-05-07 15:47 52.08571 12.40873 19228 ft 397 kts 257°
2026-05-07 15:47 52.07933 12.36513 19665 ft 397 kts 257°
2026-05-07 15:48 52.07291 12.32142 20105 ft 397 kts 257°
2026-05-07 15:48 52.06651 12.27770 20556 ft 397 kts 257°
2026-05-07 15:48 52.06021 12.23458 21019 ft 398 kts 257°
2026-05-07 15:48 52.05381 12.19081 21478 ft 400 kts 257°
2026-05-07 15:49 52.04733 12.14656 21958 ft 403 kts 257°
2026-05-07 15:49 52.04079 12.10206 22449 ft 406 kts 257°
2026-05-07 15:49 52.03420 12.05736 22938 ft 408 kts 257°
2026-05-07 15:49 52.02755 12.01239 23435 ft 410 kts 257°
2026-05-07 15:50 52.02095 11.96783 23886 ft 412 kts 257°
2026-05-07 15:50 52.01422 11.92259 24321 ft 413 kts 257°
2026-05-07 15:50 52.00745 11.87717 24746 ft 414 kts 257°
2026-05-07 15:50 52.00065 11.83169 25186 ft 415 kts 257°
2026-05-07 15:51 51.99383 11.78634 25627 ft 415 kts 256°
2026-05-07 15:51 51.98648 11.74092 26079 ft 415 kts 255°
2026-05-07 15:51 51.97878 11.69573 26463 ft 417 kts 255°
2026-05-07 15:51 51.97090 11.65009 26781 ft 421 kts 255°
2026-05-07 15:52 51.96297 11.60425 27096 ft 424 kts 255°
2026-05-07 15:52 51.95500 11.55795 27423 ft 427 kts 255°
2026-05-07 15:52 51.94711 11.51199 27739 ft 429 kts 255°
2026-05-07 15:52 51.93911 11.46533 28072 ft 429 kts 255°
2026-05-07 15:53 51.93110 11.41868 28390 ft 430 kts 255°
2026-05-07 15:53 51.92306 11.37194 28724 ft 432 kts 255°
2026-05-07 15:53 51.91498 11.32504 29062 ft 433 kts 255°
2026-05-07 15:53 51.90683 11.27786 29401 ft 435 kts 255°
2026-05-07 15:54 51.89863 11.23063 29749 ft 436 kts 254°
2026-05-07 15:54 51.89033 11.18349 30089 ft 437 kts 254°
2026-05-07 15:54 51.88186 11.13601 30395 ft 438 kts 254°
2026-05-07 15:54 51.87339 11.08869 30690 ft 438 kts 254°
2026-05-07 15:55 51.86536 11.04165 30978 ft 439 kts 257°
2026-05-07 15:55 51.85933 10.99332 31295 ft 439 kts 259°
2026-05-07 15:55 51.85399 10.94467 31592 ft 439 kts 260°
2026-05-07 15:55 51.84888 10.89606 31897 ft 439 kts 260°
2026-05-07 15:56 51.84376 10.84743 32209 ft 439 kts 260°
2026-05-07 15:56 51.83853 10.79871 32520 ft 438 kts 260°
2026-05-07 15:56 51.83322 10.75027 32839 ft 438 kts 260°
2026-05-07 15:56 51.82783 10.70186 33160 ft 437 kts 259°
2026-05-07 15:57 51.82238 10.65349 33483 ft 436 kts 259°
2026-05-07 15:57 51.81691 10.60535 33810 ft 435 kts 259°
2026-05-07 15:57 51.81141 10.55714 34125 ft 434 kts 259°
2026-05-07 15:57 51.80593 10.50940 34407 ft 432 kts 259°
2026-05-07 15:58 51.80044 10.46170 34683 ft 431 kts 259°
2026-05-07 15:58 51.79496 10.41419 34960 ft 429 kts 259°
2026-05-07 15:58 51.78949 10.36697 35251 ft 427 kts 259°
2026-05-07 15:58 51.78409 10.32055 35528 ft 425 kts 259°
2026-05-07 15:59 51.77861 10.27360 35778 ft 424 kts 259°
2026-05-07 15:59 51.77313 10.22672 35953 ft 425 kts 259°
2026-05-07 15:59 51.76761 10.17982 36068 ft 427 kts 259°
2026-05-07 16:00 51.75639 10.08485 36083 ft 434 kts 259°
2026-05-07 16:00 51.74491 9.98834 36092 ft 441 kts 258°
2026-05-07 16:01 51.73320 9.89075 36080 ft 444 kts 258°
2026-05-07 16:01 51.72137 9.79273 36074 ft 444 kts 258°
2026-05-07 16:02 51.70953 9.69541 36069 ft 440 kts 258°
2026-05-07 16:02 51.69781 9.59965 36073 ft 436 kts 258°
2026-05-07 16:03 51.68603 9.50402 36073 ft 434 kts 259°
2026-05-07 16:03 51.67531 9.40802 36082 ft 436 kts 260°
2026-05-07 16:04 51.66506 9.31162 36083 ft 442 kts 260°
2026-05-07 16:04 51.65449 9.21363 36069 ft 445 kts 260°
2026-05-07 16:05 51.64365 9.11509 36066 ft 447 kts 259°
2026-05-07 16:05 51.63265 9.01625 36073 ft 448 kts 259°
2026-05-07 16:06 51.62157 8.91761 36074 ft 447 kts 259°
2026-05-07 16:06 51.61068 8.82132 36071 ft 445 kts 259°
2026-05-07 16:07 51.59953 8.72354 36070 ft 443 kts 259°
2026-05-07 16:07 51.58835 8.62625 36071 ft 441 kts 259°
2026-05-07 16:08 51.57718 8.52968 36075 ft 439 kts 259°
2026-05-07 16:08 51.56595 8.43343 36074 ft 437 kts 259°
2026-05-07 16:09 51.55468 8.33750 36071 ft 436 kts 259°
2026-05-07 16:09 51.54342 8.24246 36072 ft 435 kts 259°
2026-05-07 16:10 51.53205 8.14710 36071 ft 435 kts 259°
2026-05-07 16:10 51.52249 8.06744 36071 ft 435 kts 259°
2026-05-07 16:11 51.51095 7.97194 36072 ft 436 kts 259°
2026-05-07 16:11 51.49931 7.87626 36074 ft 437 kts 258°
2026-05-07 16:12 51.48757 7.78049 36077 ft 438 kts 258°
2026-05-07 16:12 51.47572 7.68455 36079 ft 439 kts 258°
2026-05-07 16:13 51.46378 7.58852 36078 ft 439 kts 258°
2026-05-07 16:13 51.45528 7.52050 36079 ft 439 kts 258°
2026-05-07 16:14 51.44326 7.42485 36073 ft 440 kts 258°
2026-05-07 16:14 51.43074 7.32844 36065 ft 439 kts 254°
2026-05-07 16:15 51.40660 7.23948 35812 ft 441 kts 237°
2026-05-07 16:15 51.38881 7.19949 35371 ft 442 kts 233°
2026-05-07 16:15 51.37021 7.16028 34927 ft 439 kts 233°
2026-05-07 16:15 51.35171 7.12169 34500 ft 435 kts 233°
2026-05-07 16:16 51.33339 7.08330 34081 ft 434 kts 233°
2026-05-07 16:16 51.31517 7.04483 33591 ft 433 kts 233°
2026-05-07 16:16 51.29708 7.00640 33111 ft 432 kts 233°
2026-05-07 16:16 51.28383 6.97815 32748 ft 432 kts 233°
2026-05-07 16:17 51.26828 6.94497 32333 ft 432 kts 233°
2026-05-07 16:17 51.25015 6.90630 31878 ft 436 kts 233°
2026-05-07 16:17 51.23186 6.86733 31419 ft 441 kts 233°
2026-05-07 16:17 51.21336 6.82799 30963 ft 443 kts 233°
2026-05-07 16:18 51.19491 6.78882 30517 ft 443 kts 233°
2026-05-07 16:18 51.17661 6.75003 30069 ft 443 kts 233°
2026-05-07 16:18 51.15810 6.71087 29562 ft 443 kts 233°
2026-05-07 16:18 51.13955 6.67165 29043 ft 443 kts 233°
2026-05-07 16:19 51.12098 6.63245 28540 ft 443 kts 233°
2026-05-07 16:19 51.10237 6.59325 28049 ft 443 kts 233°
2026-05-07 16:19 51.08343 6.55472 27556 ft 443 kts 229°
2026-05-07 16:19 51.06209 6.51903 27086 ft 445 kts 225°
2026-05-07 16:20 51.03992 6.48441 26622 ft 450 kts 225°
2026-05-07 16:20 51.01730 6.44967 26148 ft 455 kts 225°
2026-05-07 16:20 50.99461 6.41476 25700 ft 453 kts 225°
2026-05-07 16:20 50.97210 6.37988 25253 ft 450 kts 225°
2026-05-07 16:21 50.94990 6.34523 24812 ft 447 kts 225°
2026-05-07 16:21 50.92785 6.31068 24387 ft 444 kts 225°
2026-05-07 16:21 50.90592 6.27628 23960 ft 442 kts 225°
2026-05-07 16:21 50.88407 6.24203 23531 ft 440 kts 225°
2026-05-07 16:22 50.86253 6.20832 23028 ft 431 kts 225°
2026-05-07 16:22 50.84165 6.17569 22533 ft 423 kts 225°
2026-05-07 16:22 50.82089 6.14331 22044 ft 415 kts 225°
2026-05-07 16:22 50.80040 6.11137 21562 ft 408 kts 225°
2026-05-07 16:23 50.78032 6.08012 21084 ft 402 kts 225°
2026-05-07 16:23 50.76053 6.04939 20622 ft 396 kts 225°
2026-05-07 16:23 50.74143 6.01855 20161 ft 390 kts 228°
2026-05-07 16:23 50.72359 5.98648 19713 ft 385 kts 230°
2026-05-07 16:24 50.70639 5.95436 19309 ft 380 kts 230°
2026-05-07 16:24 50.68951 5.92293 19021 ft 371 kts 230°
2026-05-07 16:24 50.67282 5.89230 18724 ft 364 kts 230°
2026-05-07 16:24 50.65636 5.86236 18434 ft 358 kts 230°
2026-05-07 16:25 50.64080 5.83232 18135 ft 351 kts 234°
2026-05-07 16:25 50.62668 5.80135 17817 ft 345 kts 236°
2026-05-07 16:25 50.61300 5.77063 17496 ft 340 kts 233°
2026-05-07 16:25 50.59585 5.74539 17156 ft 338 kts 211°
2026-05-07 16:26 50.57398 5.73270 16842 ft 336 kts 190°
2026-05-07 16:26 50.55081 5.73216 16530 ft 334 kts 172°
2026-05-07 16:26 50.52857 5.74217 16233 ft 331 kts 162°
2026-05-07 16:26 50.50726 5.75455 15918 ft 328 kts 160°
2026-05-07 16:27 50.48610 5.76741 15608 ft 325 kts 160°
2026-05-07 16:27 50.46510 5.78018 15293 ft 322 kts 160°
2026-05-07 16:27 50.44425 5.79272 14986 ft 319 kts 160°
2026-05-07 16:27 50.42356 5.80504 14684 ft 317 kts 160°
2026-05-07 16:28 50.40301 5.81717 14378 ft 315 kts 160°
2026-05-07 16:28 50.38255 5.82919 14082 ft 312 kts 161°
2026-05-07 16:28 50.36226 5.84106 13779 ft 310 kts 161°
2026-05-07 16:28 50.34212 5.85281 13468 ft 308 kts 161°
2026-05-07 16:29 50.32231 5.86434 13150 ft 306 kts 161°
2026-05-07 16:29 50.30218 5.87605 12827 ft 304 kts 161°
2026-05-07 16:29 50.28263 5.88741 12515 ft 302 kts 161°
2026-05-07 16:29 50.26297 5.89883 12198 ft 300 kts 161°
2026-05-07 16:30 50.24339 5.91019 11894 ft 298 kts 161°
2026-05-07 16:30 50.22402 5.92141 11578 ft 297 kts 161°
2026-05-07 16:30 50.20471 5.93260 11286 ft 295 kts 161°
2026-05-07 16:30 50.18550 5.94371 10987 ft 293 kts 161°
2026-05-07 16:31 50.16637 5.95476 10693 ft 292 kts 161°
2026-05-07 16:31 50.14737 5.96573 10392 ft 291 kts 161°
2026-05-07 16:31 50.12840 5.97666 10098 ft 290 kts 161°
2026-05-07 16:31 50.10975 5.98740 9807 ft 288 kts 161°
2026-05-07 16:32 50.09094 5.99823 9483 ft 287 kts 161°
2026-05-07 16:32 50.07220 6.00900 9179 ft 286 kts 161°
2026-05-07 16:32 50.05356 6.01971 8859 ft 285 kts 161°
2026-05-07 16:32 50.03493 6.03041 8540 ft 285 kts 160°
2026-05-07 16:33 50.01639 6.04105 8223 ft 284 kts 160°
2026-05-07 16:33 49.99785 6.05168 7961 ft 281 kts 160°
2026-05-07 16:33 49.97980 6.06204 7911 ft 271 kts 160°
2026-05-07 16:33 49.96234 6.07203 7754 ft 266 kts 160°
2026-05-07 16:34 49.94501 6.08195 7503 ft 265 kts 160°
2026-05-07 16:34 49.92788 6.09175 7258 ft 264 kts 159°
2026-05-07 16:34 49.91072 6.10154 7015 ft 262 kts 160°
2026-05-07 16:34 49.89362 6.11130 6768 ft 261 kts 159°
2026-05-07 16:35 49.87664 6.12093 6535 ft 259 kts 161°
2026-05-07 16:35 49.85890 6.12351 6262 ft 257 kts 192°
2026-05-07 16:35 49.84243 6.11373 6095 ft 251 kts 210°
2026-05-07 16:35 49.82762 6.10033 6030 ft 242 kts 212°
2026-05-07 16:36 49.81359 6.08713 6006 ft 230 kts 212°
2026-05-07 16:36 49.80016 6.07447 6021 ft 225 kts 212°
2026-05-07 16:36 49.78675 6.06202 6021 ft 224 kts 212°
2026-05-07 16:36 49.77341 6.04978 6027 ft 222 kts 212°
2026-05-07 16:37 49.76013 6.03766 6030 ft 221 kts 211°
2026-05-07 16:37 49.74695 6.02564 6063 ft 218 kts 212°
2026-05-07 16:37 49.73369 6.01357 6034 ft 224 kts 211°
2026-05-07 16:37 49.72012 6.00123 5875 ft 227 kts 211°
2026-05-07 16:38 49.70651 5.98886 5703 ft 226 kts 211°
2026-05-07 16:38 49.69296 5.97656 5522 ft 225 kts 211°
2026-05-07 16:38 49.67961 5.96445 5343 ft 224 kts 211°
2026-05-07 16:38 49.66621 5.95231 5167 ft 222 kts 211°
2026-05-07 16:39 49.65297 5.94034 4972 ft 218 kts 211°
2026-05-07 16:39 49.64009 5.92870 4777 ft 210 kts 212°
2026-05-07 16:39 49.62771 5.91752 4569 ft 202 kts 212°
2026-05-07 16:39 49.61566 5.90672 4370 ft 198 kts 211°
2026-05-07 16:40 49.60388 5.89603 4180 ft 195 kts 212°
2026-05-07 16:40 49.59214 5.88508 4074 ft 200 kts 213°
2026-05-07 16:40 49.58032 5.87403 4020 ft 198 kts 212°
2026-05-07 16:40 49.56870 5.86313 4007 ft 194 kts 213°
2026-05-07 16:41 49.55713 5.85230 4020 ft 195 kts 213°
2026-05-07 16:41 49.54538 5.84129 4007 ft 198 kts 213°
2026-05-07 16:41 49.53357 5.83056 3990 ft 197 kts 206°
2026-05-07 16:41 49.52041 5.82677 4008 ft 194 kts 184°
2026-05-07 16:42 49.50706 5.82877 3969 ft 193 kts 153°
2026-05-07 16:42 49.49845 5.84374 4010 ft 193 kts 104°
2026-05-07 16:42 49.49958 5.86383 4022 ft 191 kts 65°
2026-05-07 16:42 49.50500 5.88244 4005 ft 188 kts 62°
2026-05-07 16:43 49.51086 5.90036 4010 ft 187 kts 60°
2026-05-07 16:43 49.51711 5.91789 4006 ft 186 kts 58°
2026-05-07 16:43 49.52347 5.93515 4015 ft 184 kts 58°
2026-05-07 16:43 49.52981 5.95219 4014 ft 183 kts 58°
2026-05-07 16:44 49.53614 5.96915 4025 ft 182 kts 57°
2026-05-07 16:44 49.54257 5.98639 4044 ft 188 kts 58°
2026-05-07 16:44 49.54904 6.00373 4035 ft 183 kts 58°
2026-05-07 16:44 49.55523 6.02017 3993 ft 173 kts 56°
2026-05-07 16:45 49.56155 6.03635 3662 ft 174 kts 57°
2026-05-07 16:45 49.56754 6.05229 3429 ft 168 kts 58°
2026-05-07 16:45 49.57317 6.06751 3162 ft 158 kts 58°
2026-05-07 16:45 49.57843 6.08176 2970 ft 153 kts 57°
2026-05-07 16:46 49.58370 6.09602 2776 ft 152 kts 57°
2026-05-07 16:46 49.58900 6.11036 2566 ft 153 kts 57°
2026-05-07 16:46 49.59410 6.12416 2391 ft 143 kts 57°
2026-05-07 16:46 49.59906 6.13758 2106 ft 144 kts 57°
2026-05-07 16:47 49.60391 6.15072 1825 ft 138 kts 57°
2026-05-07 16:47 49.60851 6.16315 1641 ft 131 kts 55°
2026-05-07 16:47 49.61302 6.17541 1443 ft 132 kts 56°
2026-05-07 16:47 49.61745 6.18756 1265 ft 125 kts 58°
2026-05-07 16:48 49.62147 6.19839 1216 ft 104 kts 56°
2026-05-07 16:48 49.62434 6.20587 1227 ft 67 kts 62°
2026-05-07 16:48 49.62573 6.20967 1232 ft 20 kts 51°
2026-05-07 16:48 49.62675 6.21105 1232 ft 19 kts 37°
2026-05-07 16:49 49.62707 6.21140 1232 ft 0 kts 35°
2026-05-07 16:50 49.62718 6.21152 1232 ft 8 kts 35°
2026-05-07 16:50 49.62812 6.21247 1232 ft 20 kts 29°
2026-05-07 16:50 49.62931 6.21348 1232 ft 19 kts 28°
2026-05-07 16:51 49.63024 6.21482 1232 ft 19 kts 63°
2026-05-07 16:51 49.63082 6.21657 1232 ft 18 kts 63°
2026-05-07 16:51 49.63135 6.21827 1232 ft 17 kts 65°
2026-05-07 16:51 49.63154 6.21865 1232 ft 0 kts 31°
2026-05-07 16:52 49.63157 6.21867 1232 ft 2 kts 27°
2026-05-07 16:52 49.63190 6.21882 1232 ft 7 kts 357°
2026-05-07 16:52 49.63244 6.21834 1232 ft 11 kts 331°
2026-05-07 16:52 49.63306 6.21781 1232 ft 11 kts 323°
2026-05-07 16:53 49.63317 6.21746 1232 ft 2 kts 236°
2026-05-07 16:53 49.63291 6.21692 1232 ft 0 kts 239°
2026-05-07 16:53 49.63280 6.21625 1232 ft 14 kts 275°
2026-05-07 16:53 49.63290 6.21602 1232 ft 0 kts 320°
2026-05-07 16:54 49.63300 6.21586 1232 ft 5 kts 314°
2026-05-07 16:54 49.63341 6.21547 1232 ft 0 kts 338°